User: anonymous   Login
Location: Newark
(52.3735°N, 16.9806°E)
Time: 21:17:24
(UTC+00:00)
Language:

AO-73 - Orbit

View from above orbital plane
View from above orbital plane
View from above satellite
View from above satellite

Ground track
Ground track

The orbit data is extracted from the following two-line orbital elements,

1 39444U 13066AE  21335.55002942  .00000975  00000-0  12411-3 0  9994
2 39444  97.6020 313.7902 0056620 324.1454  35.5965 14.82644415432198
Epoch (UTC): 01 December 2021 13:12:02
Eccentricity: 0.0056620
inclination: 97.6020°
perigee height: 581 km
apogee height: 660 km
right ascension of ascending node: 313.7902°
argument of perigee: 324.1454°
revolutions per day: 14.82644415
mean anomaly at epoch: 35.5965°
orbit number at epoch: 43219

The dashed part of the orbit path shows where the satellite is in the earth's shadow,  

DLR